TimeEDT,TemperatureF,Dew PointF,Humidity,Sea Level PressureIn,VisibilityMPH,Wind Direction,Wind SpeedMPH,Gust SpeedMPH,PrecipitationIn,Events,Conditions,WindDirDegrees,DateUTC
12:15 AM,53.6,53.6,100,30.32,10.0,North,-9999.0,-,N/A,,Clear,0,2013-09-18 04:15:00
12:35 AM,53.2,53.2,100,30.32,10.0,North,-9999.0,-,N/A,,Clear,0,2013-09-18 04:35:00
12:55 AM,52.7,52.7,100,30.31,7.0,North,-9999.0,-,N/A,,Clear,0,2013-09-18 04:55:00
1:15 AM,52.3,52.3,100,30.31,10.0,North,-9999.0,-,N/A,,Clear,0,2013-09-18 05:15:00
1:35 AM,52.0,52.0,100,30.31,7.0,North,-9999.0,-,N/A,,Clear,0,2013-09-18 05:35:00
1:55 AM,51.8,51.8,100,30.31,7.0,North,-9999.0,-,N/A,,Clear,0,2013-09-18 05:55:00
2:15 AM,51.4,51.4,100,30.31,7.0,North,-9999.0,-,N/A,,Clear,0,2013-09-18 06:15:00
2:35 AM,51.4,51.4,100,30.30,7.0,North,-9999.0,-,N/A,,Clear,0,2013-09-18 06:35:00
2:55 AM,51.3,51.3,100,30.30,7.0,North,-9999.0,-,N/A,,Clear,0,2013-09-18 06:55:00
3:15 AM,51.6,51.6,100,30.30,7.0,North,-9999.0,-,N/A,,Clear,0,2013-09-18 07:15:00
3:35 AM,51.4,51.4,100,30.30,7.0,North,-9999.0,-,N/A,,Clear,0,2013-09-18 07:35:00
3:55 AM,51.3,51.3,100,30.29,5.0,North,-9999.0,-,N/A,,Clear,0,2013-09-18 07:55:00
4:15 AM,51.1,51.1,100,30.29,10.0,North,-9999.0,-,N/A,,Clear,0,2013-09-18 08:15:00
4:35 AM,50.9,50.9,100,30.30,7.0,North,-9999.0,-,N/A,,Clear,0,2013-09-18 08:35:00
4:55 AM,50.9,50.9,100,30.30,7.0,North,-9999.0,-,N/A,,Scattered Clouds,0,2013-09-18 08:55:00
5:15 AM,50.9,50.9,100,30.29,5.0,North,-9999.0,-,N/A,,Scattered Clouds,0,2013-09-18 09:15:00
5:35 AM,51.1,51.1,100,30.29,10.0,North,-9999.0,-,N/A,,Scattered Clouds,0,2013-09-18 09:35:00
5:55 AM,51.3,51.3,100,30.29,7.0,North,-9999.0,-,N/A,,Mostly Cloudy,0,2013-09-18 09:55:00
6:15 AM,51.1,51.1,100,30.30,7.0,North,-9999.0,-,N/A,,Scattered Clouds,0,2013-09-18 10:15:00
6:35 AM,51.6,51.6,100,30.30,7.0,North,-9999.0,-,N/A,,Mostly Cloudy,0,2013-09-18 10:35:00
6:55 AM,52.0,52.0,100,30.30,10.0,North,-9999.0,-,N/A,,Overcast,0,2013-09-18 10:55:00
7:15 AM,52.2,52.2,100,30.31,7.0,North,-9999.0,-,N/A,,Mostly Cloudy,0,2013-09-18 11:15:00
7:35 AM,52.2,52.2,100,30.31,7.0,North,-9999.0,-,N/A,,Scattered Clouds,0,2013-09-18 11:35:00
7:55 AM,52.9,52.9,100,30.31,7.0,North,-9999.0,-,N/A,,Mostly Cloudy,0,2013-09-18 11:55:00
8:15 AM,53.8,53.8,100,30.31,10.0,North,-9999.0,-,N/A,,Mostly Cloudy,0,2013-09-18 12:15:00
8:35 AM,55.0,55.0,100,30.31,10.0,North,-9999.0,-,N/A,,Scattered Clouds,0,2013-09-18 12:35:00
8:55 AM,57.4,57.2,99,30.32,10.0,North,-9999.0,-,N/A,,Mostly Cloudy,0,2013-09-18 12:55:00
9:15 AM,59.0,55.2,87,30.32,10.0,North,-9999.0,-,N/A,,Overcast,0,2013-09-18 13:15:00
9:35 AM,59.9,55.6,86,30.32,10.0,North,-9999.0,-,N/A,,Overcast,0,2013-09-18 13:35:00
9:55 AM,60.4,55.2,83,30.32,10.0,North,-9999.0,-,N/A,,Mostly Cloudy,0,2013-09-18 13:55:00
10:15 AM,63.1,56.5,79,30.32,10.0,North,-9999.0,-,N/A,,Scattered Clouds,0,2013-09-18 14:15:00
10:35 AM,64.6,56.7,75,30.32,10.0,North,-9999.0,-,N/A,,Clear,0,2013-09-18 14:35:00
10:55 AM,66.0,57.4,74,30.32,10.0,North,-9999.0,-,N/A,,Scattered Clouds,0,2013-09-18 14:55:00
11:15 AM,66.7,58.3,74,30.31,10.0,North,-9999.0,-,N/A,,Mostly Cloudy,0,2013-09-18 15:15:00
11:35 AM,68.4,58.5,71,30.31,10.0,North,-9999.0,-,N/A,,Scattered Clouds,0,2013-09-18 15:35:00
11:55 AM,69.8,58.8,68,30.30,10.0,North,-9999.0,-,N/A,,Mostly Cloudy,0,2013-09-18 15:55:00
12:15 PM,68.5,59.0,72,30.30,10.0,North,-9999.0,-,N/A,,Overcast,0,2013-09-18 16:15:00
12:35 PM,66.2,61.3,84,30.30,10.0,North,-9999.0,-,N/A,,Overcast,0,2013-09-18 16:35:00
12:55 PM,68.0,61.5,80,30.30,10.0,North,-9999.0,-,N/A,,Overcast,0,2013-09-18 16:55:00
1:15 PM,68.5,60.1,74,30.29,10.0,North,-9999.0,-,N/A,,Overcast,0,2013-09-18 17:15:00
1:35 PM,69.1,60.4,74,30.29,10.0,North,-9999.0,-,N/A,,Overcast,0,2013-09-18 17:35:00
1:55 PM,67.6,61.5,81,30.29,7.0,North,-9999.0,-,N/A,Rain,Rain,0,2013-09-18 17:55:00
2:15 PM,66.6,62.2,86,30.28,10.0,North,-9999.0,-,N/A,,Overcast,0,2013-09-18 18:15:00
2:35 PM,66.6,61.9,85,30.28,10.0,North,-9999.0,-,N/A,,Overcast,0,2013-09-18 18:35:00
2:55 PM,66.4,61.7,85,30.28,10.0,North,-9999.0,-,N/A,Rain,Rain,0,2013-09-18 18:55:00
3:15 PM,65.3,62.1,89,30.27,10.0,North,-9999.0,-,N/A,,Light Drizzle,0,2013-09-18 19:15:00
3:35 PM,64.2,62.1,93,30.26,3.0,North,-9999.0,-,N/A,,Light Drizzle,0,2013-09-18 19:35:00
3:55 PM,63.9,62.8,96,30.26,4.0,North,-9999.0,-,N/A,,Light Drizzle,0,2013-09-18 19:55:00
4:15 PM,63.7,62.6,96,30.26,4.0,North,-9999.0,-,N/A,,Overcast,0,2013-09-18 20:15:00
4:35 PM,64.0,63.0,96,30.25,3.0,North,-9999.0,-,N/A,,Light Drizzle,0,2013-09-18 20:35:00
4:55 PM,64.4,63.5,97,30.25,5.0,North,-9999.0,-,N/A,,Overcast,0,2013-09-18 20:55:00
5:15 PM,64.4,63.7,98,30.25,3.0,North,-9999.0,-,N/A,,Overcast,0,2013-09-18 21:15:00
5:35 PM,64.4,63.9,98,30.24,2.0,North,-9999.0,-,N/A,,Light Drizzle,0,2013-09-18 21:35:00
5:55 PM,64.6,64.4,99,30.24,2.5,North,-9999.0,-,N/A,,Light Drizzle,0,2013-09-18 21:55:00
6:15 PM,64.9,64.6,99,30.24,7.0,North,-9999.0,-,N/A,,Overcast,0,2013-09-18 22:15:00
6:35 PM,64.6,64.0,98,30.24,7.0,North,-9999.0,-,N/A,,Overcast,0,2013-09-18 22:35:00
6:55 PM,64.4,64.0,99,30.23,4.0,North,-9999.0,-,N/A,,Overcast,0,2013-09-18 22:55:00
7:15 PM,64.2,64.2,100,30.23,5.0,North,-9999.0,-,N/A,,Overcast,0,2013-09-18 23:15:00
7:35 PM,63.9,63.9,100,30.23,5.0,North,-9999.0,-,N/A,,Overcast,0,2013-09-18 23:35:00
7:55 PM,63.9,63.9,100,30.23,4.0,North,-9999.0,-,N/A,,Overcast,0,2013-09-18 23:55:00
8:15 PM,63.7,63.7,100,30.23,5.0,North,-9999.0,-,N/A,,Overcast,0,2013-09-19 00:15:00
8:35 PM,63.7,63.7,100,30.24,5.0,North,-9999.0,-,N/A,,Overcast,0,2013-09-19 00:35:00
8:55 PM,63.7,63.7,100,30.24,5.0,North,-9999.0,-,N/A,,Overcast,0,2013-09-19 00:55:00
9:15 PM,63.7,63.7,100,30.24,5.0,North,-9999.0,-,N/A,,Overcast,0,2013-09-19 01:15:00
9:35 PM,63.7,63.7,100,30.24,5.0,North,-9999.0,-,N/A,,Overcast,0,2013-09-19 01:35:00
9:55 PM,63.7,63.7,100,30.25,4.0,North,-9999.0,-,N/A,,Overcast,0,2013-09-19 01:55:00
10:15 PM,63.7,63.7,100,30.25,4.0,North,-9999.0,-,N/A,,Overcast,0,2013-09-19 02:15:00
10:35 PM,63.7,63.7,100,30.25,4.0,North,-9999.0,-,N/A,,Overcast,0,2013-09-19 02:35:00
10:55 PM,63.7,63.7,100,30.25,4.0,North,-9999.0,-,N/A,,Light Drizzle,0,2013-09-19 02:55:00
11:15 PM,63.5,63.5,100,30.25,4.0,North,-9999.0,-,N/A,,Overcast,0,2013-09-19 03:15:00
11:35 PM,63.5,63.5,100,30.24,4.0,North,-9999.0,-,N/A,,Overcast,0,2013-09-19 03:35:00
11:55 PM,63.7,63.7,100,30.24,5.0,North,-9999.0,-,N/A,,Overcast,0,2013-09-19 03:55:00